Time,TemperatureF,DewpointF,PressureIn,WindDirection,WindDirectionDegrees,WindSpeedMPH,WindSpeedGustMPH,Humidity,HourlyPrecipIn,Conditions,Clouds,dailyrainin,SoftwareType,DateUTC
2013-07-19 00:02:00,71.1,39.7,30.08,NE,43,3.5,3.5,32,0.00,CLR,SCT,0.00,WeatherDisplay:10.37,2013-07-19 07:02:00,
2013-07-19 00:07:00,70.7,39.4,30.08,NE,43,0.0,0.0,32,0.00,CLR,SCT,0.00,WeatherDisplay:10.37,2013-07-19 07:07:00,
2013-07-19 00:12:00,70.3,39.1,30.08,NE,39,3.5,3.5,32,0.00,CLR,SCT,0.00,WeatherDisplay:10.37,2013-07-19 07:12:00,
2013-07-19 00:17:00,69.8,38.6,30.08,NE,37,4.0,4.0,32,0.00,CLR,SCT,0.00,WeatherDisplay:10.37,2013-07-19 07:17:00,
2013-07-19 00:22:00,68.9,38.6,30.08,NE,37,0.0,0.0,33,0.00,CLR,SCT,0.00,WeatherDisplay:10.37,2013-07-19 07:22:00,
2013-07-19 00:27:00,68.2,38.0,30.08,NE,39,0.0,0.0,33,0.00,CLR,SCT,0.00,WeatherDisplay:10.37,2013-07-19 07:27:00,
2013-07-19 00:32:00,67.3,37.2,30.08,NE,39,0.0,0.0,33,0.00,CLR,SCT,0.00,WeatherDisplay:10.37,2013-07-19 07:32:00,
2013-07-19 00:38:00,66.7,36.7,30.08,East,83,3.5,3.6,33,0.00,CLR,SCT,0.00,WeatherDisplay:10.37,2013-07-19 07:38:00,
2013-07-19 00:43:00,66.6,36.5,30.08,East,83,3.5,3.5,33,0.00,CLR,SCT,0.00,WeatherDisplay:10.37,2013-07-19 07:43:00,
2013-07-19 00:48:00,66.6,36.5,30.08,East,83,3.5,3.5,33,0.00,CLR,SCT,0.00,WeatherDisplay:10.37,2013-07-19 07:48:00,
2013-07-19 00:53:00,66.2,36.2,30.08,East,83,3.5,3.5,33,0.00,CLR,SCT,0.00,WeatherDisplay:10.37,2013-07-19 07:53:00,
2013-07-19 00:58:00,65.7,35.8,30.08,East,83,3.6,3.6,33,0.00,CLR,SCT,0.00,WeatherDisplay:10.37,2013-07-19 07:58:00,
2013-07-19 01:03:00,64.9,35.1,30.08,SE,135,4.5,4.5,33,0.00,CLR,SCT,0.00,WeatherDisplay:10.37,2013-07-19 08:03:00,
2013-07-19 01:09:00,64.2,35.2,30.08,SE,135,2.3,2.7,34,0.00,CLR,SCT,0.00,WeatherDisplay:10.37,2013-07-19 08:09:00,
2013-07-19 01:14:00,64.2,35.2,30.08,SE,135,2.3,2.3,34,0.00,CLR,SCT,0.00,WeatherDisplay:10.37,2013-07-19 08:14:00,
2013-07-19 01:19:00,63.9,34.9,30.08,SE,135,2.7,2.7,34,0.00,CLR,SCT,0.00,WeatherDisplay:10.37,2013-07-19 08:19:00,
2013-07-19 01:24:00,63.3,34.4,30.08,SE,135,2.7,0.0,34,0.00,CLR,SCT,0.00,WeatherDisplay:10.37,2013-07-19 08:24:00,
2013-07-19 01:29:00,63.0,34.1,30.08,SE,135,3.5,3.5,34,0.00,CLR,SCT,0.00,WeatherDisplay:10.37,2013-07-19 08:29:00,
2013-07-19 01:34:00,62.4,33.7,30.08,SE,135,3.5,3.5,34,0.00,CLR,SCT,0.00,WeatherDisplay:10.37,2013-07-19 08:34:00,
2013-07-19 01:40:00,61.7,33.7,30.08,SE,135,4.6,4.6,35,0.00,CLR,SCT,0.00,WeatherDisplay:10.37,2013-07-19 08:40:00,
2013-07-19 01:45:00,60.8,33.0,30.08,SSW,203,5.8,5.8,35,0.00,CLR,SCT,0.00,WeatherDisplay:10.37,2013-07-19 08:45:00,
2013-07-19 01:50:00,60.6,32.8,30.08,SSW,203,3.5,3.6,35,0.00,CLR,SCT,0.00,WeatherDisplay:10.37,2013-07-19 08:50:00,
2013-07-19 01:55:00,60.4,32.6,30.08,SSW,203,5.8,5.8,35,0.00,CLR,SCT,0.00,WeatherDisplay:10.37,2013-07-19 08:55:00,
2013-07-19 02:00:00,60.1,32.3,30.08,SSW,203,3.5,3.6,35,0.00,CLR,SCT,0.00,WeatherDisplay:10.37,2013-07-19 09:00:00,
2013-07-19 02:05:00,59.7,32.0,30.08,SSW,203,3.5,3.6,35,0.00,CLR,SCT,0.00,WeatherDisplay:10.37,2013-07-19 09:05:00,
2013-07-19 02:10:00,59.4,31.7,30.08,SSW,203,3.5,3.5,35,0.00,CLR,SCT,0.00,WeatherDisplay:10.37,2013-07-19 09:10:00,
2013-07-19 02:15:00,59.0,31.4,30.08,SSW,203,4.0,4.0,35,0.00,CLR,SCT,0.00,WeatherDisplay:10.37,2013-07-19 09:15:00,
2013-07-19 02:21:00,58.8,31.9,30.08,SSW,200,3.6,3.6,36,0.00,CLR,SCT,0.00,WeatherDisplay:10.37,2013-07-19 09:21:00,
2013-07-19 02:26:00,58.3,31.4,30.08,SSW,200,4.6,4.6,36,0.00,CLR,SCT,0.00,WeatherDisplay:10.37,2013-07-19 09:26:00,
2013-07-19 02:31:00,58.1,31.3,30.08,South,189,5.8,5.8,36,0.00,CLR,SCT,0.00,WeatherDisplay:10.37,2013-07-19 09:31:00,
2013-07-19 02:36:00,57.9,31.1,30.08,South,189,4.6,4.6,36,0.00,CLR,SCT,0.00,WeatherDisplay:10.37,2013-07-19 09:36:00,
2013-07-19 02:41:00,57.6,30.8,30.08,South,189,3.5,3.6,36,0.00,CLR,SCT,0.00,WeatherDisplay:10.37,2013-07-19 09:41:00,
2013-07-19 02:46:00,57.6,30.8,30.08,SE,129,4.6,4.6,36,0.00,CLR,SCT,0.00,WeatherDisplay:10.37,2013-07-19 09:46:00,
2013-07-19 02:51:00,57.6,30.8,30.08,SE,133,3.5,3.5,36,0.00,CLR,SCT,0.00,WeatherDisplay:10.37,2013-07-19 09:51:00,
2013-07-19 02:56:00,57.4,30.6,30.08,SE,133,3.5,3.6,36,0.00,CLR,SCT,0.00,WeatherDisplay:10.37,2013-07-19 09:56:00,
2013-07-19 03:02:00,57.4,30.6,30.08,SE,133,3.5,3.5,36,0.00,CLR,SCT,0.00,WeatherDisplay:10.37,2013-07-19 10:02:00,
2013-07-19 03:07:00,57.4,30.6,30.08,SE,133,3.5,3.5,36,0.00,CLR,SCT,0.00,WeatherDisplay:10.37,2013-07-19 10:07:00,
2013-07-19 03:12:00,57.4,30.6,30.08,SE,133,3.6,3.6,36,0.00,CLR,SCT,0.00,WeatherDisplay:10.37,2013-07-19 10:12:00,
2013-07-19 03:17:00,57.4,30.6,30.08,SSE,150,3.5,3.6,36,0.00,CLR,SCT,0.00,WeatherDisplay:10.37,2013-07-19 10:17:00,
2013-07-19 03:22:00,57.4,30.6,30.08,SSE,150,3.5,3.5,36,0.00,CLR,SCT,0.00,WeatherDisplay:10.37,2013-07-19 10:22:00,
2013-07-19 03:27:00,57.2,30.5,30.08,SSE,150,0.0,0.0,36,0.00,CLR,SCT,0.00,WeatherDisplay:10.37,2013-07-19 10:27:00,
2013-07-19 03:33:00,56.8,30.1,30.08,SSE,150,0.0,0.0,36,0.00,CLR,SCT,0.00,WeatherDisplay:10.37,2013-07-19 10:33:00,
2013-07-19 03:38:00,56.3,29.7,30.08,SSE,150,0.0,0.0,36,0.00,CLR,SCT,0.00,WeatherDisplay:10.37,2013-07-19 10:38:00,
2013-07-19 03:43:00,55.8,29.9,30.08,SSE,150,2.3,0.0,37,0.00,CLR,SCT,0.00,WeatherDisplay:10.37,2013-07-19 10:43:00,
2013-07-19 03:48:00,55.6,29.7,30.08,SSE,150,0.0,0.0,37,0.00,CLR,SCT,0.00,WeatherDisplay:10.37,2013-07-19 10:48:00,
2013-07-19 03:53:00,55.2,29.4,30.08,SSE,150,0.0,0.0,37,0.00,CLR,SCT,0.00,WeatherDisplay:10.37,2013-07-19 10:53:00,
2013-07-19 03:58:00,55.0,29.2,30.05,SSE,150,0.0,0.0,37,0.00,CLR,SCT,0.00,WeatherDisplay:10.37,2013-07-19 10:58:00,
2013-07-19 04:03:00,55.0,29.2,30.05,SSE,150,0.0,0.0,37,0.00,CLR,SCT,0.00,WeatherDisplay:10.37,2013-07-19 11:03:00,
2013-07-19 04:08:00,55.0,29.2,30.05,SSE,150,0.0,0.0,37,0.00,CLR,SCT,0.00,WeatherDisplay:10.37,2013-07-19 11:08:00,
2013-07-19 04:13:00,54.7,28.9,30.08,SSE,150,0.0,0.0,37,0.00,CLR,SCT,0.00,WeatherDisplay:10.37,2013-07-19 11:13:00,
2013-07-19 04:18:00,54.7,29.5,30.08,SSE,150,0.0,0.0,38,0.00,CLR,SCT,0.00,WeatherDisplay:10.37,2013-07-19 11:18:00,
2013-07-19 04:23:00,54.7,29.5,30.08,SSE,150,0.0,0.0,38,0.00,CLR,SCT,0.00,WeatherDisplay:10.37,2013-07-19 11:23:00,
2013-07-19 04:28:00,54.7,29.5,30.08,SSE,150,0.0,0.0,38,0.00,CLR,SCT,0.00,WeatherDisplay:10.37,2013-07-19 11:28:00,
2013-07-19 04:34:00,54.3,29.2,30.08,SSE,150,0.0,0.0,38,0.00,CLR,SCT,0.00,WeatherDisplay:10.37,2013-07-19 11:34:00,
2013-07-19 04:39:00,54.1,29.1,30.08,SSE,150,0.0,0.0,38,0.00,CLR,SCT,0.00,WeatherDisplay:10.37,2013-07-19 11:39:00,
2013-07-19 04:44:00,53.8,28.7,30.05,SSE,150,0.0,0.0,38,0.00,CLR,SCT,0.00,WeatherDisplay:10.37,2013-07-19 11:44:00,
2013-07-19 04:49:00,53.6,28.6,30.05,SSE,150,0.0,0.0,38,0.00,CLR,SCT,0.00,WeatherDisplay:10.37,2013-07-19 11:49:00,
2013-07-19 04:54:00,53.4,29.1,30.05,SSE,150,0.0,0.0,39,0.00,CLR,SCT,0.00,WeatherDisplay:10.37,2013-07-19 11:54:00,
2013-07-19 04:59:00,53.2,28.3,30.08,SSE,150,0.0,0.0,38,0.00,CLR,SCT,0.00,WeatherDisplay:10.37,2013-07-19 11:59:00,
2013-07-19 05:04:00,52.7,27.8,30.08,SSE,150,0.0,0.0,38,0.00,CLR,SCT,0.00,WeatherDisplay:10.37,2013-07-19 12:04:00,
2013-07-19 05:09:00,52.5,27.6,30.08,SSE,150,0.0,0.0,38,0.00,CLR,SCT,0.00,WeatherDisplay:10.37,2013-07-19 12:09:00,
2013-07-19 05:14:00,52.2,27.3,30.08,SSE,150,0.0,0.0,38,0.00,CLR,SCT,0.00,WeatherDisplay:10.37,2013-07-19 12:14:00,
2013-07-19 05:20:00,51.8,27.0,30.08,SSE,150,0.0,0.0,38,0.00,CLR,SCT,0.00,WeatherDisplay:10.37,2013-07-19 12:20:00,
2013-07-19 05:25:00,51.6,27.4,30.08,SSE,150,0.0,0.0,39,0.00,CLR,SCT,0.00,WeatherDisplay:10.37,2013-07-19 12:25:00,
2013-07-19 05:30:00,51.3,27.1,30.08,SSE,150,0.0,0.0,39,0.00,CLR,SCT,0.00,WeatherDisplay:10.37,2013-07-19 12:30:00,
2013-07-19 05:35:00,51.3,28.3,30.08,SSE,150,0.0,0.0,41,0.00,CLR,SCT,0.00,WeatherDisplay:10.37,2013-07-19 12:35:00,
2013-07-19 05:40:00,51.1,27.6,30.08,SSE,150,0.0,0.0,40,0.00,CLR,SCT,0.00,WeatherDisplay:10.37,2013-07-19 12:40:00,
2013-07-19 05:45:00,51.1,28.8,30.08,SSE,150,0.0,0.0,42,0.00,CLR,SCT,0.00,WeatherDisplay:10.37,2013-07-19 12:45:00,
2013-07-19 05:50:00,50.7,29.0,30.08,SSE,150,0.0,0.0,43,0.00,CLR,SCT,0.00,WeatherDisplay:10.37,2013-07-19 12:50:00,
2013-07-19 05:56:00,50.5,28.8,30.08,SSE,150,0.0,0.0,43,0.00,CLR,SCT,0.00,WeatherDisplay:10.37,2013-07-19 12:56:00,
2013-07-19 06:01:00,50.2,30.7,30.08,SSE,150,0.0,0.0,47,0.00,CLR,SCT,0.00,WeatherDisplay:10.37,2013-07-19 13:01:00,
2013-07-19 06:06:00,49.8,30.4,30.08,SSE,150,0.0,0.0,47,0.00,CLR,SCT,0.00,WeatherDisplay:10.37,2013-07-19 13:06:00,
2013-07-19 06:11:00,49.6,30.7,30.08,SSE,150,0.0,0.0,48,0.00,CLR,SCT,0.00,WeatherDisplay:10.37,2013-07-19 13:11:00,
2013-07-19 06:16:00,49.5,30.6,30.08,SSE,150,0.0,0.0,48,0.00,CLR,SCT,0.00,WeatherDisplay:10.37,2013-07-19 13:16:00,
2013-07-19 06:22:00,49.3,30.4,30.08,SSE,150,0.0,0.0,48,0.00,CLR,SCT,0.00,WeatherDisplay:10.37,2013-07-19 13:22:00,
2013-07-19 06:27:00,49.1,30.2,30.08,SSE,150,0.0,0.0,48,0.00,CLR,SCT,0.00,WeatherDisplay:10.37,2013-07-19 13:27:00,
2013-07-19 06:32:00,49.3,30.9,30.08,SSE,150,0.0,0.0,49,0.00,CLR,SCT,0.00,WeatherDisplay:10.37,2013-07-19 13:32:00,
2013-07-19 06:37:00,49.1,30.7,30.08,SSE,150,0.0,0.0,49,0.00,CLR,SCT,0.00,WeatherDisplay:10.37,2013-07-19 13:37:00,
2013-07-19 06:43:00,49.1,30.7,30.08,SSE,150,0.0,0.0,49,0.00,CLR,SCT,0.00,WeatherDisplay:10.37,2013-07-19 13:43:00,
2013-07-19 06:48:00,49.3,30.4,30.08,SSE,150,0.0,0.0,48,0.00,CLR,SCT,0.00,WeatherDisplay:10.37,2013-07-19 13:48:00,
2013-07-19 06:53:00,49.6,30.7,30.08,SSE,150,0.0,0.0,48,0.00,CLR,SCT,0.00,WeatherDisplay:10.37,2013-07-19 13:53:00,
2013-07-19 06:58:00,50.2,31.2,30.08,SSE,147,0.0,0.0,48,0.00,CLR,SCT,0.00,WeatherDisplay:10.37,2013-07-19 13:58:00,
2013-07-19 07:03:00,50.9,31.9,30.08,SE,143,0.0,0.0,48,0.00,CLR,SCT,0.00,WeatherDisplay:10.37,2013-07-19 14:03:00,
2013-07-19 07:08:00,51.4,32.4,30.08,SE,143,0.0,0.0,48,0.00,CLR,SCT,0.00,WeatherDisplay:10.37,2013-07-19 14:08:00,
2013-07-19 07:13:00,51.8,31.7,30.08,SE,143,0.0,0.0,46,0.00,CLR,SCT,0.00,WeatherDisplay:10.37,2013-07-19 14:13:00,
2013-07-19 07:18:00,52.0,31.8,30.08,SE,143,0.0,0.0,46,0.00,CLR,SCT,0.00,WeatherDisplay:10.37,2013-07-19 14:18:00,
2013-07-19 07:24:00,52.5,32.3,30.08,SE,144,0.0,0.0,46,0.00,CLR,SCT,0.00,WeatherDisplay:10.37,2013-07-19 14:24:00,
2013-07-19 07:29:00,53.1,32.3,30.08,SE,144,0.0,0.0,45,0.00,CLR,SCT,0.00,WeatherDisplay:10.37,2013-07-19 14:29:00,
2013-07-19 07:34:00,53.4,32.6,30.08,SE,144,0.0,0.0,45,0.00,CLR,SCT,0.00,WeatherDisplay:10.37,2013-07-19 14:34:00,
2013-07-19 07:39:00,54.1,32.7,30.08,SE,144,0.0,0.0,44,0.00,CLR,SCT,0.00,WeatherDisplay:10.37,2013-07-19 14:39:00,
2013-07-19 07:44:00,54.9,32.8,30.08,SE,145,0.0,0.0,43,0.00,CLR,SCT,0.00,WeatherDisplay:10.37,2013-07-19 14:44:00,
2013-07-19 07:50:00,55.9,31.9,30.08,SE,146,0.0,0.0,40,0.00,CLR,SCT,0.00,WeatherDisplay:10.37,2013-07-19 14:50:00,
2013-07-19 07:55:00,57.0,32.3,30.08,SE,146,0.0,0.0,39,0.00,CLR,SCT,0.00,WeatherDisplay:10.37,2013-07-19 14:55:00,
2013-07-19 08:00:00,57.9,32.4,30.08,SE,146,0.0,0.0,38,0.00,CLR,SCT,0.00,WeatherDisplay:10.37,2013-07-19 15:00:00,
2013-07-19 08:05:00,58.6,33.1,30.08,SSE,147,0.0,0.0,38,0.00,CLR,SCT,0.00,WeatherDisplay:10.37,2013-07-19 15:05:00,
2013-07-19 08:10:00,59.5,33.2,30.08,SSE,150,0.0,0.0,37,0.00,CLR,SCT,0.00,WeatherDisplay:10.37,2013-07-19 15:10:00,
2013-07-19 08:15:00,60.3,33.2,30.08,SSE,149,0.0,0.0,36,0.00,CLR,SCT,0.00,WeatherDisplay:10.37,2013-07-19 15:15:00,
2013-07-19 08:20:00,61.3,34.1,30.08,SSE,149,0.0,0.0,36,0.00,CLR,SCT,0.00,WeatherDisplay:10.37,2013-07-19 15:20:00,
2013-07-19 08:25:00,62.4,35.1,30.08,SSE,148,0.0,0.0,36,0.00,CLR,SCT,0.00,WeatherDisplay:10.37,2013-07-19 15:25:00,
2013-07-19 08:30:00,63.3,35.2,30.08,SE,146,0.0,0.0,35,0.00,CLR,SCT,0.00,WeatherDisplay:10.37,2013-07-19 15:30:00,
2013-07-19 08:35:00,64.4,35.4,30.08,SE,146,0.0,0.0,34,0.00,CLR,SCT,0.00,WeatherDisplay:10.37,2013-07-19 15:35:00,
2013-07-19 08:40:00,65.1,36.0,30.08,SSE,151,3.5,0.0,34,0.00,CLR,SCT,0.00,WeatherDisplay:10.37,2013-07-19 15:40:00,
2013-07-19 08:46:00,66.0,36.8,30.08,SSE,151,3.5,3.5,34,0.00,CLR,SCT,0.00,WeatherDisplay:10.37,2013-07-19 15:46:00,
2013-07-19 08:51:00,66.9,36.9,30.08,SSE,155,3.5,3.5,33,0.00,CLR,SCT,0.00,WeatherDisplay:10.37,2013-07-19 15:51:00,
2013-07-19 08:56:00,67.5,37.3,30.08,SSE,155,0.0,0.0,33,0.00,CLR,SCT,0.00,WeatherDisplay:10.37,2013-07-19 15:56:00,
2013-07-19 09:01:00,68.4,38.1,30.08,SSE,155,0.0,0.0,33,0.00,CLR,SCT,0.00,WeatherDisplay:10.37,2013-07-19 16:01:00,
2013-07-19 09:06:00,69.3,38.9,30.08,SSE,164,2.3,0.0,33,0.00,CLR,SCT,0.00,WeatherDisplay:10.37,2013-07-19 16:06:00,
2013-07-19 09:11:00,70.2,38.9,30.08,SSE,164,2.3,0.0,32,0.00,CLR,SCT,0.00,WeatherDisplay:10.37,2013-07-19 16:11:00,
2013-07-19 09:16:00,71.1,39.7,30.08,SSW,193,3.5,0.0,32,0.00,CLR,SCT,0.00,WeatherDisplay:10.37,2013-07-19 16:16:00,
2013-07-19 09:21:00,72.0,40.5,30.08,SSW,193,0.0,0.0,32,0.00,CLR,SCT,0.00,WeatherDisplay:10.37,2013-07-19 16:21:00,
2013-07-19 09:26:00,73.0,41.4,30.08,SSW,197,0.0,0.0,32,0.00,CLR,SCT,0.00,WeatherDisplay:10.37,2013-07-19 16:26:00,
2013-07-19 09:32:00,73.9,41.4,30.08,SSW,197,3.5,3.5,31,0.00,CLR,SCT,0.00,WeatherDisplay:10.37,2013-07-19 16:32:00,
2013-07-19 09:37:00,74.8,42.1,30.08,SSW,196,0.0,4.0,31,0.00,CLR,SCT,0.00,WeatherDisplay:10.37,2013-07-19 16:37:00,
2013-07-19 09:42:00,75.7,42.9,30.08,SSW,194,0.0,0.0,31,0.00,CLR,SCT,0.00,WeatherDisplay:10.37,2013-07-19 16:42:00,
2013-07-19 09:47:00,76.6,43.7,30.08,North,0,4.6,4.6,31,0.00,CLR,SCT,0.00,WeatherDisplay:10.37,2013-07-19 16:47:00,
2013-07-19 09:52:00,77.7,44.7,30.08,North,0,5.8,0.0,31,0.00,CLR,SCT,0.00,WeatherDisplay:10.37,2013-07-19 16:52:00,
2013-07-19 09:58:00,78.6,45.4,30.08,NNE,32,2.3,0.0,31,0.00,CLR,SCT,0.00,WeatherDisplay:10.37,2013-07-19 16:58:00,
2013-07-19 10:03:00,79.5,45.4,30.08,East,87,0.0,0.0,30,0.00,CLR,SCT,0.00,WeatherDisplay:10.37,2013-07-19 17:03:00,
2013-07-19 10:08:00,80.2,46.0,30.08,North,0,3.5,3.5,30,0.00,CLR,SCT,0.00,WeatherDisplay:10.37,2013-07-19 17:08:00,
2013-07-19 10:13:00,81.3,46.9,30.08,North,0,3.5,0.0,30,0.00,CLR,SCT,0.00,WeatherDisplay:10.37,2013-07-19 17:13:00,
2013-07-19 10:18:00,82.2,47.7,30.08,North,0,0.0,0.0,30,0.00,CLR,SCT,0.00,WeatherDisplay:10.37,2013-07-19 17:18:00,
2013-07-19 10:23:00,83.3,47.7,30.08,NNE,31,5.8,5.8,29,0.00,CLR,SCT,0.00,WeatherDisplay:10.37,2013-07-19 17:23:00,
2013-07-19 10:28:00,84.2,48.5,30.05,NE,42,2.3,2.3,29,0.00,CLR,SCT,0.00,WeatherDisplay:10.37,2013-07-19 17:28:00,
2013-07-19 10:33:00,84.9,49.1,30.05,NE,45,5.8,5.8,29,0.00,CLR,SCT,0.00,WeatherDisplay:10.37,2013-07-19 17:33:00,
2013-07-19 10:39:00,85.8,49.9,30.05,North,0,5.8,5.8,29,0.00,CLR,SCT,0.00,WeatherDisplay:10.37,2013-07-19 17:39:00,
2013-07-19 10:44:00,86.9,50.8,30.05,ENE,72,5.8,5.8,29,0.00,CLR,SCT,0.00,WeatherDisplay:10.37,2013-07-19 17:44:00,
2013-07-19 10:49:00,87.3,51.1,30.05,North,0,6.9,6.9,29,0.00,CLR,SCT,0.00,WeatherDisplay:10.37,2013-07-19 17:49:00,
2013-07-19 10:54:00,87.3,51.1,30.05,North,0,8.7,8.7,29,0.00,CLR,SCT,0.00,WeatherDisplay:10.37,2013-07-19 17:54:00,
2013-07-19 10:59:00,87.4,51.3,30.05,North,0,10.4,10.4,29,0.00,CLR,SCT,0.00,WeatherDisplay:10.37,2013-07-19 17:59:00,
2013-07-19 11:05:00,88.0,50.8,30.05,North,0,8.1,8.1,28,0.00,CLR,SCT,0.00,WeatherDisplay:10.37,2013-07-19 18:05:00,
2013-07-19 11:10:00,88.7,51.4,30.05,NNE,15,4.6,4.6,28,0.00,CLR,SCT,0.00,WeatherDisplay:10.37,2013-07-19 18:10:00,
2013-07-19 11:15:00,89.4,52.0,30.05,NE,47,8.1,8.1,28,0.00,CLR,SCT,0.00,WeatherDisplay:10.37,2013-07-19 18:15:00,
2013-07-19 11:20:00,89.8,52.3,30.05,North,0,4.6,4.6,28,0.00,CLR,SCT,0.00,WeatherDisplay:10.37,2013-07-19 18:20:00,
2013-07-19 11:25:00,90.3,52.8,30.05,North,0,10.5,10.5,28,0.00,CLR,SCT,0.00,WeatherDisplay:10.37,2013-07-19 18:25:00,
2013-07-19 11:31:00,90.5,52.9,30.05,North,0,11.5,11.5,28,0.00,CLR,SCT,0.00,WeatherDisplay:10.37,2013-07-19 18:31:00,
2013-07-19 11:36:00,90.7,53.1,30.05,WNW,288,11.5,11.5,28,0.00,CLR,SCT,0.00,WeatherDisplay:10.37,2013-07-19 18:36:00,
2013-07-19 11:41:00,91.8,53.0,30.05,North,0,11.5,11.5,27,0.00,CLR,SCT,0.00,WeatherDisplay:10.37,2013-07-19 18:41:00,
2013-07-19 11:46:00,92.3,53.5,30.05,North,0,7.2,7.2,27,0.00,CLR,SCT,0.00,WeatherDisplay:10.37,2013-07-19 18:46:00,
2013-07-19 11:51:00,92.3,53.5,30.05,North,0,9.2,9.2,27,0.00,CLR,SCT,0.00,WeatherDisplay:10.37,2013-07-19 18:51:00,
2013-07-19 11:56:00,92.1,53.3,30.05,North,0,10.4,10.4,27,0.00,CLR,SCT,0.00,WeatherDisplay:10.37,2013-07-19 18:56:00,
2013-07-19 12:01:00,92.7,53.8,30.05,NNE,14,10.5,10.5,27,0.00,CLR,SCT,0.00,WeatherDisplay:10.37,2013-07-19 19:01:00,
2013-07-19 12:06:00,93.2,54.3,30.05,North,0,8.1,8.1,27,0.00,CLR,SCT,0.00,WeatherDisplay:10.37,2013-07-19 19:06:00,
2013-07-19 12:11:00,93.7,54.7,30.05,North,0,10.4,10.4,27,0.00,CLR,SCT,0.00,WeatherDisplay:10.37,2013-07-19 19:11:00,
2013-07-19 12:16:00,93.9,54.9,30.05,North,0,9.2,9.2,27,0.00,CLR,SCT,0.00,WeatherDisplay:10.37,2013-07-19 19:16:00,
2013-07-19 12:22:00,93.9,54.9,30.05,North,0,10.4,10.4,27,0.00,CLR,SCT,0.00,WeatherDisplay:10.37,2013-07-19 19:22:00,
2013-07-19 12:27:00,94.3,55.2,30.05,North,0,10.4,10.4,27,0.00,CLR,SCT,0.00,WeatherDisplay:10.37,2013-07-19 19:27:00,
2013-07-19 12:32:00,94.6,55.5,30.05,North,0,11.5,11.5,27,0.00,CLR,SCT,0.00,WeatherDisplay:10.37,2013-07-19 19:32:00,
2013-07-19 12:37:00,94.5,55.3,30.05,North,0,11.5,11.5,27,0.00,CLR,SCT,0.00,WeatherDisplay:10.37,2013-07-19 19:37:00,
2013-07-19 12:42:00,94.6,55.5,30.02,North,10,10.4,10.4,27,0.00,CLR,SCT,0.00,WeatherDisplay:10.37,2013-07-19 19:42:00,
2013-07-19 12:47:00,95.0,55.8,30.02,North,0,8.1,8.1,27,0.00,CLR,SCT,0.00,WeatherDisplay:10.37,2013-07-19 19:47:00,
2013-07-19 12:52:00,95.0,55.8,30.02,North,0,12.7,12.7,27,0.00,CLR,SCT,0.00,WeatherDisplay:10.37,2013-07-19 19:52:00,
2013-07-19 12:58:00,95.2,55.9,30.02,North,0,8.1,8.1,27,0.00,CLR,SCT,0.00,WeatherDisplay:10.37,2013-07-19 19:58:00,
2013-07-19 13:03:00,95.5,56.2,30.02,North,0,5.8,5.8,27,0.00,CLR,SCT,0.00,WeatherDisplay:10.37,2013-07-19 20:03:00,
2013-07-19 13:08:00,96.1,56.7,30.02,ENE,60,10.4,10.4,27,0.00,CLR,SCT,0.00,WeatherDisplay:10.37,2013-07-19 20:08:00,
2013-07-19 13:13:00,96.4,57.0,30.02,North,0,9.2,9.2,27,0.00,CLR,SCT,0.00,WeatherDisplay:10.37,2013-07-19 20:13:00,
2013-07-19 13:19:00,96.3,56.8,30.02,NNE,22,10.4,10.4,27,0.00,CLR,SCT,0.00,WeatherDisplay:10.37,2013-07-19 20:19:00,
2013-07-19 13:24:00,96.3,56.8,30.02,North,1,8.0,8.0,27,0.00,CLR,SCT,0.00,WeatherDisplay:10.37,2013-07-19 20:24:00,
2013-07-19 13:29:00,96.3,56.8,30.02,North,0,9.2,9.2,27,0.00,CLR,SCT,0.00,WeatherDisplay:10.37,2013-07-19 20:29:00,
2013-07-19 13:34:00,96.3,56.8,30.02,NNE,28,9.2,9.2,27,0.00,CLR,SCT,0.00,WeatherDisplay:10.37,2013-07-19 20:34:00,
2013-07-19 13:39:00,96.4,57.0,30.02,North,0,6.7,6.7,27,0.00,CLR,SCT,0.00,WeatherDisplay:10.37,2013-07-19 20:39:00,
2013-07-19 13:44:00,96.3,56.8,30.02,North,0,11.5,11.5,27,0.00,CLR,SCT,0.00,WeatherDisplay:10.37,2013-07-19 20:44:00,
2013-07-19 13:50:00,96.4,57.0,30.02,North,0,9.2,9.2,27,0.00,CLR,SCT,0.00,WeatherDisplay:10.37,2013-07-19 20:50:00,
2013-07-19 13:55:00,96.6,57.2,30.02,North,0,8.1,8.1,27,0.00,CLR,SCT,0.00,WeatherDisplay:10.37,2013-07-19 20:55:00,
2013-07-19 14:00:00,97.3,56.7,30.02,North,0,10.4,10.4,26,0.00,CLR,SCT,0.00,WeatherDisplay:10.37,2013-07-19 21:00:00,
2013-07-19 14:05:00,97.5,56.9,30.02,North,0,15.0,15.0,26,0.00,CLR,SCT,0.00,WeatherDisplay:10.37,2013-07-19 21:05:00,
2013-07-19 14:10:00,97.5,56.9,29.99,North,0,10.4,10.4,26,0.00,CLR,SCT,0.00,WeatherDisplay:10.37,2013-07-19 21:10:00,
2013-07-19 14:16:00,97.9,57.2,29.99,North,0,10.4,10.4,26,0.00,CLR,SCT,0.00,WeatherDisplay:10.37,2013-07-19 21:16:00,
2013-07-19 14:21:00,97.9,57.2,29.99,North,0,10.4,10.4,26,0.00,CLR,SCT,0.00,WeatherDisplay:10.37,2013-07-19 21:21:00,
2013-07-19 14:26:00,97.7,57.0,29.99,North,0,8.1,8.1,26,0.00,CLR,SCT,0.00,WeatherDisplay:10.37,2013-07-19 21:26:00,
2013-07-19 14:31:00,97.5,56.9,29.99,North,0,12.7,12.7,26,0.00,CLR,SCT,0.00,WeatherDisplay:10.37,2013-07-19 21:31:00,
2013-07-19 14:36:00,97.9,57.2,29.99,North,0,11.5,11.5,26,0.00,CLR,SCT,0.00,WeatherDisplay:10.37,2013-07-19 21:36:00,
2013-07-19 14:41:00,97.3,56.7,29.99,North,0,12.7,12.7,26,0.00,CLR,SCT,0.00,WeatherDisplay:10.37,2013-07-19 21:41:00,
2013-07-19 14:46:00,97.3,56.7,29.99,WNW,283,10.4,10.4,26,0.00,CLR,SCT,0.00,WeatherDisplay:10.37,2013-07-19 21:46:00,
2013-07-19 14:52:00,97.9,57.2,29.99,North,0,10.4,10.4,26,0.00,CLR,SCT,0.00,WeatherDisplay:10.37,2013-07-19 21:52:00,
2013-07-19 14:57:00,98.1,57.3,29.99,West,280,11.5,11.5,26,0.00,CLR,SCT,0.00,WeatherDisplay:10.37,2013-07-19 21:57:00,
2013-07-19 15:02:00,98.8,57.9,29.99,North,0,9.2,9.2,26,0.00,CLR,SCT,0.00,WeatherDisplay:10.37,2013-07-19 22:02:00,
2013-07-19 15:07:00,99.1,58.2,29.99,North,0,10.4,10.4,26,0.00,CLR,SCT,0.00,WeatherDisplay:10.37,2013-07-19 22:07:00,
2013-07-19 15:12:00,99.3,58.4,29.99,North,0,9.2,9.2,26,0.00,CLR,SCT,0.00,WeatherDisplay:10.37,2013-07-19 22:12:00,
2013-07-19 15:17:00,99.5,58.5,29.99,North,0,8.1,8.1,26,0.00,CLR,SCT,0.00,WeatherDisplay:10.37,2013-07-19 22:17:00,
2013-07-19 15:22:00,99.5,58.5,29.99,North,0,6.9,6.9,26,0.00,CLR,SCT,0.00,WeatherDisplay:10.37,2013-07-19 22:22:00,
2013-07-19 15:27:00,99.5,58.5,29.99,North,0,10.9,10.9,26,0.00,CLR,SCT,0.00,WeatherDisplay:10.37,2013-07-19 22:27:00,
2013-07-19 15:33:00,99.9,58.8,29.99,North,0,12.7,12.7,26,0.00,CLR,SCT,0.00,WeatherDisplay:10.37,2013-07-19 22:33:00,
2013-07-19 15:38:00,99.7,58.7,29.99,North,0,10.4,10.4,26,0.00,CLR,SCT,0.00,WeatherDisplay:10.37,2013-07-19 22:38:00,
2013-07-19 15:43:00,99.3,58.4,29.99,North,0,5.8,5.8,26,0.00,CLR,SCT,0.00,WeatherDisplay:10.37,2013-07-19 22:43:00,
2013-07-19 15:48:00,99.1,58.2,29.99,North,0,5.8,5.8,26,0.00,CLR,SCT,0.00,WeatherDisplay:10.37,2013-07-19 22:48:00,
2013-07-19 15:53:00,99.3,58.4,29.99,North,0,11.5,11.5,26,0.00,CLR,SCT,0.00,WeatherDisplay:10.37,2013-07-19 22:53:00,
2013-07-19 15:58:00,99.0,58.1,29.99,North,0,12.7,12.7,26,0.00,CLR,SCT,0.00,WeatherDisplay:10.37,2013-07-19 22:58:00,
2013-07-19 16:03:00,99.1,58.2,29.99,WSW,240,10.4,10.4,26,0.00,CLR,SCT,0.00,WeatherDisplay:10.37,2013-07-19 23:03:00,
2013-07-19 16:08:00,99.5,58.5,29.99,NNW,347,7.0,13.0,26,0.00,CLR,SCT,0.00,WeatherDisplay:10.37,2013-07-19 23:08:00,
2013-07-19 16:13:00,99.9,58.8,29.96,North,0,9.2,9.2,26,0.00,CLR,SCT,0.00,WeatherDisplay:10.37,2013-07-19 23:13:00,
2013-07-19 16:18:00,100.0,59.0,29.96,North,0,8.1,8.1,26,0.00,CLR,SCT,0.00,WeatherDisplay:10.37,2013-07-19 23:18:00,
2013-07-19 16:24:00,100.0,59.0,29.96,NNE,22,2.3,7.6,26,0.00,CLR,SCT,0.00,WeatherDisplay:10.37,2013-07-19 23:24:00,
2013-07-19 16:29:00,99.9,58.8,29.96,North,0,9.2,9.2,26,0.00,CLR,SCT,0.00,WeatherDisplay:10.37,2013-07-19 23:29:00,
2013-07-19 16:34:00,99.5,58.5,29.96,North,0,9.2,9.2,26,0.00,CLR,SCT,0.00,WeatherDisplay:10.37,2013-07-19 23:34:00,
2013-07-19 16:39:00,99.5,58.5,29.96,North,0,10.4,10.4,26,0.00,CLR,SCT,0.00,WeatherDisplay:10.37,2013-07-19 23:39:00,
2013-07-19 16:44:00,99.3,58.4,29.96,North,0,10.4,10.4,26,0.00,CLR,SCT,0.00,WeatherDisplay:10.37,2013-07-19 23:44:00,
2013-07-19 16:49:00,99.5,58.5,29.96,North,0,10.4,10.4,26,0.00,CLR,SCT,0.00,WeatherDisplay:10.37,2013-07-19 23:49:00,
2013-07-19 16:54:00,99.9,58.8,29.96,NNE,28,5.8,5.8,26,0.00,CLR,SCT,0.00,WeatherDisplay:10.37,2013-07-19 23:54:00,
2013-07-19 16:59:00,99.7,58.7,29.96,North,0,11.5,11.5,26,0.00,CLR,SCT,0.00,WeatherDisplay:10.37,2013-07-19 23:59:00,
2013-07-19 17:04:00,99.3,58.4,29.96,NNE,20,3.5,3.5,26,0.00,CLR,SCT,0.00,WeatherDisplay:10.37,2013-07-20 00:04:00,
2013-07-19 17:10:00,99.5,58.5,29.96,North,0,8.3,8.3,26,0.00,CLR,SCT,0.00,WeatherDisplay:10.37,2013-07-20 00:10:00,
2013-07-19 17:15:00,99.0,58.1,29.96,North,0,12.7,12.7,26,0.00,CLR,SCT,0.00,WeatherDisplay:10.37,2013-07-20 00:15:00,
2013-07-19 17:20:00,99.1,58.2,29.96,North,0,8.1,8.1,26,0.00,CLR,SCT,0.00,WeatherDisplay:10.37,2013-07-20 00:20:00,
2013-07-19 17:25:00,99.3,58.4,29.93,NE,54,4.6,4.6,26,0.00,CLR,SCT,0.00,WeatherDisplay:10.37,2013-07-20 00:25:00,
2013-07-19 17:30:00,99.3,58.4,29.93,North,0,10.4,10.4,26,0.00,CLR,SCT,0.00,WeatherDisplay:10.37,2013-07-20 00:30:00,
2013-07-19 17:36:00,98.8,57.9,29.93,NE,40,8.1,8.3,26,0.00,CLR,SCT,0.00,WeatherDisplay:10.37,2013-07-20 00:36:00,
2013-07-19 17:41:00,98.8,57.9,29.96,North,0,9.2,9.2,26,0.00,CLR,SCT,0.00,WeatherDisplay:10.37,2013-07-20 00:41:00,
2013-07-19 17:46:00,98.4,57.6,29.96,North,0,9.2,9.2,26,0.00,CLR,SCT,0.00,WeatherDisplay:10.37,2013-07-20 00:46:00,
2013-07-19 17:51:00,98.4,57.6,29.96,NNE,24,8.1,8.1,26,0.00,CLR,SCT,0.00,WeatherDisplay:10.37,2013-07-20 00:51:00,
2013-07-19 17:56:00,98.2,57.5,29.96,NNE,30,11.5,11.5,26,0.00,CLR,SCT,0.00,WeatherDisplay:10.37,2013-07-20 00:56:00,
2013-07-19 18:01:00,98.4,57.6,29.96,NE,43,12.7,12.7,26,0.00,CLR,SCT,0.00,WeatherDisplay:10.37,2013-07-20 01:01:00,
2013-07-19 18:06:00,98.1,57.3,29.96,North,0,11.5,11.5,26,0.00,CLR,SCT,0.00,WeatherDisplay:10.37,2013-07-20 01:06:00,
2013-07-19 18:11:00,97.7,57.0,29.96,North,0,15.0,15.0,26,0.00,CLR,SCT,0.00,WeatherDisplay:10.37,2013-07-20 01:11:00,
2013-07-19 18:16:00,97.5,56.9,29.96,NNE,24,6.9,6.9,26,0.00,CLR,SCT,0.00,WeatherDisplay:10.37,2013-07-20 01:16:00,
2013-07-19 18:22:00,97.3,56.7,29.96,North,0,11.5,11.5,26,0.00,CLR,SCT,0.00,WeatherDisplay:10.37,2013-07-20 01:22:00,
2013-07-19 18:27:00,97.0,56.4,29.93,North,0,8.1,8.1,26,0.00,CLR,SCT,0.00,WeatherDisplay:10.37,2013-07-20 01:27:00,
2013-07-19 18:32:00,97.0,56.4,29.93,North,0,12.7,12.7,26,0.00,CLR,SCT,0.00,WeatherDisplay:10.37,2013-07-20 01:32:00,
2013-07-19 18:38:00,96.4,57.0,29.93,North,0,11.5,11.5,27,0.00,CLR,SCT,0.00,WeatherDisplay:10.37,2013-07-20 01:38:00,
2013-07-19 18:43:00,96.1,56.7,29.93,North,0,5.8,7.6,27,0.00,CLR,SCT,0.00,WeatherDisplay:10.37,2013-07-20 01:43:00,
2013-07-19 18:48:00,95.7,56.4,29.93,North,0,11.5,11.5,27,0.00,CLR,SCT,0.00,WeatherDisplay:10.37,2013-07-20 01:48:00,
2013-07-19 18:53:00,95.4,56.1,29.93,North,0,10.4,10.4,27,0.00,CLR,SCT,0.00,WeatherDisplay:10.37,2013-07-20 01:53:00,
2013-07-19 18:58:00,95.0,55.8,29.93,North,0,10.9,10.9,27,0.00,CLR,SCT,0.00,WeatherDisplay:10.37,2013-07-20 01:58:00,
2013-07-19 19:03:00,94.8,55.6,29.93,North,0,14.5,14.5,27,0.00,CLR,SCT,0.00,WeatherDisplay:10.37,2013-07-20 02:03:00,
2013-07-19 19:08:00,94.5,55.3,29.93,NNE,12,10.0,15.0,27,0.00,CLR,SCT,0.00,WeatherDisplay:10.37,2013-07-20 02:08:00,
2013-07-19 19:13:00,94.1,55.0,29.93,North,0,11.5,11.5,27,0.00,CLR,SCT,0.00,WeatherDisplay:10.37,2013-07-20 02:13:00,
2013-07-19 19:18:00,93.6,54.6,29.93,North,0,11.5,11.5,27,0.00,CLR,SCT,0.00,WeatherDisplay:10.37,2013-07-20 02:18:00,
2013-07-19 19:23:00,93.2,54.3,29.93,North,0,11.5,11.5,27,0.00,CLR,SCT,0.00,WeatherDisplay:10.37,2013-07-20 02:23:00,
2013-07-19 19:28:00,92.8,53.9,29.93,NNE,12,9.2,9.2,27,0.00,CLR,SCT,0.00,WeatherDisplay:10.37,2013-07-20 02:28:00,
2013-07-19 19:33:00,92.7,53.8,29.93,North,0,11.5,11.5,27,0.00,CLR,SCT,0.00,WeatherDisplay:10.37,2013-07-20 02:33:00,
2013-07-19 19:39:00,92.3,53.5,29.93,North,0,12.7,12.7,27,0.00,CLR,SCT,0.00,WeatherDisplay:10.37,2013-07-20 02:39:00,
2013-07-19 19:44:00,91.8,53.0,29.93,North,0,12.7,12.7,27,0.00,CLR,SCT,0.00,WeatherDisplay:10.37,2013-07-20 02:44:00,
2013-07-19 19:49:00,91.4,52.7,29.93,North,0,11.5,11.5,27,0.00,CLR,SCT,0.00,WeatherDisplay:10.37,2013-07-20 02:49:00,
2013-07-19 19:54:00,91.2,53.6,29.93,North,0,11.5,11.5,28,0.00,CLR,SCT,0.00,WeatherDisplay:10.37,2013-07-20 02:54:00,
2013-07-19 19:59:00,90.9,53.3,29.93,North,0,10.4,10.4,28,0.00,CLR,SCT,0.00,WeatherDisplay:10.37,2013-07-20 02:59:00,
2013-07-19 20:05:00,90.5,52.9,29.93,North,0,15.0,15.0,28,0.00,CLR,SCT,0.00,WeatherDisplay:10.37,2013-07-20 03:05:00,
2013-07-19 20:06:00,90.5,52.9,29.93,North,0,12.7,12.7,28,0.00,CLR,SCT,0.00,WeatherDisplay:10.37,2013-07-20 03:06:00,
2013-07-19 20:11:00,90.1,52.6,29.93,North,0,15.4,15.4,28,0.00,CLR,SCT,0.00,WeatherDisplay:10.37,2013-07-20 03:11:00,
2013-07-19 20:16:00,90.0,52.5,29.93,North,0,9.2,9.2,28,0.00,CLR,SCT,0.00,WeatherDisplay:10.37,2013-07-20 03:16:00,
2013-07-19 20:21:00,89.6,52.2,29.93,North,0,12.7,12.7,28,0.00,CLR,SCT,0.00,WeatherDisplay:10.37,2013-07-20 03:21:00,
2013-07-19 20:26:00,89.2,51.9,29.93,North,0,15.0,15.0,28,0.00,CLR,SCT,0.00,WeatherDisplay:10.37,2013-07-20 03:26:00,
2013-07-19 20:31:00,88.9,51.6,29.93,North,0,16.1,16.1,28,0.00,CLR,SCT,0.00,WeatherDisplay:10.37,2013-07-20 03:31:00,
2013-07-19 20:37:00,88.3,51.1,29.93,North,0,12.7,12.7,28,0.00,CLR,SCT,0.00,WeatherDisplay:10.37,2013-07-20 03:37:00,
2013-07-19 20:42:00,88.0,50.8,29.93,North,0,11.5,11.5,28,0.00,CLR,SCT,0.00,WeatherDisplay:10.37,2013-07-20 03:42:00,
2013-07-19 20:47:00,87.4,51.3,29.93,North,0,13.8,13.8,29,0.00,CLR,SCT,0.00,WeatherDisplay:10.37,2013-07-20 03:47:00,
2013-07-19 20:52:00,87.1,51.0,29.93,North,0,10.0,17.0,29,0.00,CLR,SCT,0.00,WeatherDisplay:10.37,2013-07-20 03:52:00,
2013-07-19 20:58:00,86.7,50.7,29.96,North,0,13.8,13.8,29,0.00,CLR,SCT,0.00,WeatherDisplay:10.37,2013-07-20 03:58:00,
2013-07-19 21:01:00,86.5,50.5,29.96,North,0,12.7,12.7,29,0.00,CLR,SCT,0.00,WeatherDisplay:10.37,2013-07-20 04:01:00,
2013-07-19 21:02:00,86.4,50.3,29.96,North,0,11.5,11.5,29,0.00,CLR,SCT,0.00,WeatherDisplay:10.37,2013-07-20 04:02:00,
2013-07-19 21:03:00,86.2,50.2,29.96,North,0,11.5,11.5,29,0.00,CLR,SCT,0.00,WeatherDisplay:10.37,2013-07-20 04:03:00,
2013-07-19 21:08:00,85.8,49.9,29.96,North,0,15.0,15.0,29,0.00,CLR,SCT,0.00,WeatherDisplay:10.37,2013-07-20 04:08:00,
2013-07-19 21:13:00,85.5,49.6,29.96,North,0,10.4,10.4,29,0.00,CLR,SCT,0.00,WeatherDisplay:10.37,2013-07-20 04:13:00,
2013-07-19 21:18:00,84.7,49.0,29.96,North,0,9.2,9.2,29,0.00,CLR,SCT,0.00,WeatherDisplay:10.37,2013-07-20 04:18:00,
2013-07-19 21:23:00,84.2,48.5,29.96,North,0,5.8,6.7,29,0.00,CLR,SCT,0.00,WeatherDisplay:10.37,2013-07-20 04:23:00,
2013-07-19 21:28:00,83.7,48.0,29.96,North,0,8.1,8.1,29,0.00,CLR,SCT,0.00,WeatherDisplay:10.37,2013-07-20 04:28:00,
2013-07-19 21:33:00,83.3,47.7,29.96,North,0,5.8,5.8,29,0.00,CLR,SCT,0.00,WeatherDisplay:10.37,2013-07-20 04:33:00,
2013-07-19 21:39:00,82.8,47.3,29.96,North,0,5.8,5.8,29,0.00,CLR,SCT,0.00,WeatherDisplay:10.37,2013-07-20 04:39:00,
2013-07-19 21:44:00,82.4,46.9,29.96,North,0,8.1,8.1,29,0.00,CLR,SCT,0.00,WeatherDisplay:10.37,2013-07-20 04:44:00,
2013-07-19 21:49:00,82.0,47.5,29.96,North,0,6.3,6.3,30,0.00,CLR,SCT,0.00,WeatherDisplay:10.37,2013-07-20 04:49:00,
2013-07-19 21:54:00,81.7,47.2,29.96,North,0,8.1,8.1,30,0.00,CLR,SCT,0.00,WeatherDisplay:10.37,2013-07-20 04:54:00,
2013-07-19 21:59:00,81.3,46.9,29.96,North,0,5.8,5.8,30,0.00,CLR,SCT,0.00,WeatherDisplay:10.37,2013-07-20 04:59:00,
2013-07-19 22:04:00,81.0,46.6,29.96,North,0,3.5,3.6,30,0.00,CLR,SCT,0.00,WeatherDisplay:10.37,2013-07-20 05:04:00,
2013-07-19 22:09:00,80.6,46.3,29.96,North,0,3.5,3.5,30,0.00,CLR,SCT,0.00,WeatherDisplay:10.37,2013-07-20 05:09:00,
2013-07-19 22:14:00,79.9,45.7,29.99,North,0,3.5,3.5,30,0.00,CLR,SCT,0.00,WeatherDisplay:10.37,2013-07-20 05:14:00,
2013-07-19 22:20:00,79.3,45.2,29.99,North,0,0.0,0.0,30,0.00,CLR,SCT,0.00,WeatherDisplay:10.37,2013-07-20 05:20:00,
2013-07-19 22:25:00,78.8,44.7,29.99,North,0,3.5,3.5,30,0.00,CLR,SCT,0.00,WeatherDisplay:10.37,2013-07-20 05:25:00,
2013-07-19 22:30:00,78.4,45.3,29.99,NE,41,3.5,3.5,31,0.00,CLR,SCT,0.00,WeatherDisplay:10.37,2013-07-20 05:30:00,
2013-07-19 22:35:00,78.1,45.0,29.99,NE,39,5.8,5.8,31,0.00,CLR,SCT,0.00,WeatherDisplay:10.37,2013-07-20 05:35:00,
2013-07-19 22:40:00,77.5,44.5,29.99,NNE,26,5.4,5.4,31,0.00,CLR,SCT,0.00,WeatherDisplay:10.37,2013-07-20 05:40:00,
2013-07-19 22:45:00,77.0,44.0,29.99,North,0,5.8,5.8,31,0.00,CLR,SCT,0.00,WeatherDisplay:10.37,2013-07-20 05:45:00,
2013-07-19 22:50:00,76.8,43.9,29.99,North,0,0.0,0.0,31,0.00,CLR,SCT,0.00,WeatherDisplay:10.37,2013-07-20 05:50:00,
2013-07-19 22:55:00,76.3,43.4,29.99,North,0,3.6,3.6,31,0.00,CLR,SCT,0.00,WeatherDisplay:10.37,2013-07-20 05:55:00,
2013-07-19 23:01:00,75.9,43.1,29.99,North,0,3.6,3.6,31,0.00,CLR,SCT,0.00,WeatherDisplay:10.37,2013-07-20 06:01:00,
2013-07-19 23:06:00,75.2,42.5,29.99,North,0,0.0,0.0,31,0.00,CLR,SCT,0.00,WeatherDisplay:10.37,2013-07-20 06:06:00,
2013-07-19 23:11:00,74.7,42.0,29.99,North,0,2.3,0.0,31,0.00,CLR,SCT,0.00,WeatherDisplay:10.37,2013-07-20 06:11:00,
2013-07-19 23:16:00,73.9,41.4,29.99,North,0,2.3,2.3,31,0.00,CLR,SCT,0.00,WeatherDisplay:10.37,2013-07-20 06:16:00,
2013-07-19 23:21:00,73.2,41.6,29.99,North,0,0.0,0.0,32,0.00,CLR,SCT,0.00,WeatherDisplay:10.37,2013-07-20 06:21:00,
2013-07-19 23:26:00,72.7,41.1,29.99,North,0,0.0,0.0,32,0.00,CLR,SCT,0.00,WeatherDisplay:10.37,2013-07-20 06:26:00,
2013-07-19 23:31:00,72.3,40.8,29.99,North,0,0.0,0.0,32,0.00,CLR,SCT,0.00,WeatherDisplay:10.37,2013-07-20 06:31:00,
2013-07-19 23:36:00,71.8,40.3,29.99,North,0,0.0,0.0,32,0.00,CLR,SCT,0.00,WeatherDisplay:10.37,2013-07-20 06:36:00,
2013-07-19 23:41:00,71.2,39.9,29.99,North,0,0.0,0.0,32,0.00,CLR,SCT,0.00,WeatherDisplay:10.37,2013-07-20 06:41:00,
2013-07-19 23:46:00,70.9,39.5,29.99,North,0,0.0,0.0,32,0.00,CLR,SCT,0.00,WeatherDisplay:10.37,2013-07-20 06:46:00,
2013-07-19 23:51:00,70.2,38.9,29.99,North,0,4.6,4.6,32,0.00,CLR,SCT,0.00,WeatherDisplay:10.37,2013-07-20 06:51:00,
2013-07-19 23:57:00,68.9,38.6,29.99,North,0,5.8,5.8,33,0.00,CLR,SCT,0.00,WeatherDisplay:10.37,2013-07-20 06:57:00,